Location: Unspecified
(64.9000°N, 0.0000°E)
Time: 04:02:30
(UTC+00:00)

Altair - Pass Details

Date: 19 June 2019
Orbit: 1501 x 1683 km, 47.2° (Epoch: 19 July)

Event Time Altitude Azimuth Distance (km) Brightness Sun altitude
Rises 00:14:39 0° 251° (WSW) 4,816 9.9 -1.6°
Reaches altitude 10° 00:18:19 10° 241° (WSW) 3,857 9.3 -1.6°
Maximum altitude 00:26:03 27° 188° (S) 2,778 8.3 -1.6°
Drops below altitude 10° 00:33:57 10° 136° (SE) 3,937 9.3 -1.5°
Sets 00:37:44 0° 126° (SE) 4,932 9.9 -1.4°
